Location: Newark
(39.6867°N, 100.6772°W)
Time: 07:31:41
(UTC+00:00)

Transit 2A - Pass Details

Date: 23 October 2019
Orbit: 601 x 957 km, 66.7° (Epoch: 16 November)

Event Time Altitude Azimuth Distance (km) Brightness Sun altitude
Exits shadow 10:48:44 13° 169° (SSE) 1,761 7.9 -26.1°
Drops below altitude 10° 10:49:16 10° 167° (SSE) 1,970 8.2 -26.0°
Sets 10:51:35 0° 163° (SSE) 2,900 9.1 -25.6°
